カタログに戻る

STARLINK-32761

運用中通信VLEO
NORAD 62749·PAYLOAD·🇺🇸 United States

打ち上げ Jan 21, 2025 から Cape Canaveral Space Force Station

Loading…

次のパス (今後24時間)

TLE

最新Source: CelesTrak SupGP

元期: Sep 14, 2026, 21:27 UTC

1 62749C 25014Q   26257.89423611 -.00051087  00000+0 -18500-2 0  2571
2 62749  43.0028 169.1612 0001331 267.0220 165.7300 15.27609767    13

AllMySatでSTARLINK-32761をリアルタイム追跡

Download on the App Store